contact:dominique.lefevre@mio.osupytheas.fr, maurice.libes@osupytheas.fr, didier.mallarino@osupytheas.fr
Project:EMSO http://www.emso-fr.org/EMSO-France
Depth: 2436.0 m
Title:EMSO Ligure Ouest : Data MII capteur MICROCAT
DateTime_Computer,Latitude,Longitude,Temperature,Conductivity,Pressure,DateTime_Instrument
DateTime_Computer,Latitude,Longitude,degC,S m-1,dbar,DateTime_Instrument
2021-08-28T00:02:48Z,42.805,6.029,13.2987,4.59998,2470.343,2021-8-28T02:04:07Z
2021-08-28T00:05:51Z,42.805,6.029,13.2983,4.59997,2470.343,2021-8-28T02:07:11Z
2021-08-28T00:08:54Z,42.805,6.029,13.2985,4.59997,2470.357,2021-8-28T02:10:14Z
2021-08-28T00:11:57Z,42.805,6.029,13.2987,4.59998,2470.32,2021-8-28T02:13:17Z
2021-08-28T00:15:00Z,42.805,6.029,13.2986,4.59999,2470.366,2021-8-28T02:16:20Z
2021-08-28T00:18:04Z,42.805,6.029,13.2989,4.59997,2470.32,2021-8-28T02:19:23Z
2021-08-28T00:21:07Z,42.805,6.029,13.2985,4.60000,2470.32,2021-8-28T02:22:26Z
2021-08-28T00:24:10Z,42.805,6.029,13.2984,4.59996,2470.343,2021-8-28T02:25:29Z
2021-08-28T00:27:13Z,42.805,6.029,13.2983,4.59998,2470.343,2021-8-28T02:28:32Z
2021-08-28T00:30:16Z,42.805,6.029,13.2983,4.59996,2470.32,2021-8-28T02:31:36Z
2021-08-28T00:33:19Z,42.805,6.029,13.2986,4.59997,2470.32,2021-8-28T02:34:39Z
2021-08-28T00:36:22Z,42.805,6.029,13.2983,4.59999,2470.334,2021-8-28T02:37:42Z
2021-08-28T00:39:25Z,42.805,6.029,13.2983,4.59998,2470.334,2021-8-28T02:40:45Z
2021-08-28T00:42:29Z,42.805,6.029,13.2986,4.59996,2470.32,2021-8-28T02:43:48Z
2021-08-28T00:45:32Z,42.805,6.029,13.2986,4.59997,2470.31,2021-8-28T02:46:51Z
2021-08-28T00:48:35Z,42.805,6.029,13.2984,4.59997,2470.334,2021-8-28T02:49:54Z
2021-08-28T00:51:38Z,42.805,6.029,13.2982,4.59999,2470.297,2021-8-28T02:52:57Z
2021-08-28T00:54:41Z,42.805,6.029,13.2986,4.59996,2470.31,2021-8-28T02:56:01Z
2021-08-28T00:57:44Z,42.805,6.029,13.2988,4.59999,2470.31,2021-8-28T02:59:04Z
2021-08-28T01:00:47Z,42.805,6.029,13.2984,4.59998,2470.287,2021-8-28T03:02:07Z
2021-08-28T01:03:50Z,42.805,6.029,13.2982,4.59996,2470.283,2021-8-28T03:05:10Z
2021-08-28T01:06:53Z,42.805,6.029,13.2988,4.59996,2470.273,2021-8-28T03:08:13Z
2021-08-28T01:09:57Z,42.805,6.029,13.2986,4.59998,2470.25,2021-8-28T03:11:16Z
2021-08-28T01:13:00Z,42.805,6.029,13.2986,4.59997,2470.31,2021-8-28T03:14:19Z
2021-08-28T01:16:03Z,42.805,6.029,13.2985,4.59996,2470.287,2021-8-28T03:17:22Z
2021-08-28T01:19:06Z,42.805,6.029,13.2982,4.59997,2470.31,2021-8-28T03:20:25Z
2021-08-28T01:22:09Z,42.805,6.029,13.2985,4.59996,2470.273,2021-8-28T03:23:29Z
2021-08-28T01:25:12Z,42.805,6.029,13.2984,4.59998,2470.273,2021-8-28T03:26:32Z
2021-08-28T01:28:15Z,42.805,6.029,13.2985,4.59997,2470.273,2021-8-28T03:29:35Z
2021-08-28T01:31:18Z,42.805,6.029,13.2987,4.59997,2470.264,2021-8-28T03:32:38Z
2021-08-28T01:34:22Z,42.805,6.029,13.2985,4.59996,2470.273,2021-8-28T03:35:41Z
2021-08-28T01:37:25Z,42.805,6.029,13.2985,4.59998,2470.273,2021-8-28T03:38:44Z
2021-08-28T01:40:28Z,42.805,6.029,13.2985,4.59996,2470.273,2021-8-28T03:41:47Z
2021-08-28T01:43:31Z,42.805,6.029,13.2986,4.59997,2470.25,2021-8-28T03:44:51Z
2021-08-28T01:46:34Z,42.805,6.029,13.2984,4.59998,2470.273,2021-8-28T03:47:54Z
2021-08-28T01:49:37Z,42.805,6.029,13.2986,4.59996,2470.264,2021-8-28T03:50:57Z
2021-08-28T01:52:40Z,42.805,6.029,13.2982,4.59997,2470.264,2021-8-28T03:54:00Z
2021-08-28T01:55:43Z,42.805,6.029,13.2988,4.59999,2470.25,2021-8-28T03:57:03Z
2021-08-28T01:58:47Z,42.805,6.029,13.2983,4.59999,2470.264,2021-8-28T04:00:06Z
2021-08-28T02:01:50Z,42.805,6.029,13.2987,4.59996,2470.273,2021-8-28T04:03:09Z
2021-08-28T02:04:53Z,42.805,6.029,13.2982,4.59997,2470.227,2021-8-28T04:06:12Z
2021-08-28T02:07:56Z,42.805,6.029,13.2982,4.59997,2470.264,2021-8-28T04:09:15Z
2021-08-28T02:10:59Z,42.805,6.029,13.2983,4.59996,2470.273,2021-8-28T04:12:19Z
2021-08-28T02:14:02Z,42.805,6.029,13.2983,4.59996,2470.264,2021-8-28T04:15:22Z
2021-08-28T02:17:05Z,42.805,6.029,13.2982,4.59997,2470.25,2021-8-28T04:18:25Z
2021-08-28T02:20:08Z,42.805,6.029,13.2982,4.59996,2470.24,2021-8-28T04:21:28Z
2021-08-28T02:23:12Z,42.805,6.029,13.2990,4.59996,2470.264,2021-8-28T04:24:31Z
2021-08-28T02:26:15Z,42.805,6.029,13.2989,4.59997,2470.264,2021-8-28T04:27:34Z
2021-08-28T02:29:18Z,42.805,6.029,13.2986,4.59998,2470.227,2021-8-28T04:30:37Z
2021-08-28T02:32:21Z,42.805,6.029,13.2986,4.59997,2470.264,2021-8-28T04:33:40Z
2021-08-28T02:35:24Z,42.805,6.029,13.2985,4.59996,2470.24,2021-8-28T04:36:44Z
2021-08-28T02:38:27Z,42.805,6.029,13.2987,4.59997,2470.25,2021-8-28T04:39:47Z
2021-08-28T02:41:30Z,42.805,6.029,13.2983,4.59996,2470.25,2021-8-28T04:42:50Z
2021-08-28T02:44:33Z,42.805,6.029,13.2989,4.59997,2470.227,2021-8-28T04:45:53Z
2021-08-28T02:47:37Z,42.805,6.029,13.2987,4.59997,2470.25,2021-8-28T04:48:56Z
2021-08-28T02:50:40Z,42.805,6.029,13.2983,4.59996,2470.264,2021-8-28T04:51:59Z
2021-08-28T02:53:43Z,42.805,6.029,13.2985,4.59997,2470.25,2021-8-28T04:55:02Z
2021-08-28T02:56:46Z,42.805,6.029,13.2984,4.59996,2470.25,2021-8-28T04:58:05Z
2021-08-28T02:59:49Z,42.805,6.029,13.2980,4.59996,2470.227,2021-8-28T05:01:09Z
2021-08-28T03:02:52Z,42.805,6.029,13.2980,4.59996,2470.264,2021-8-28T05:04:12Z
2021-08-28T03:05:55Z,42.805,6.029,13.2983,4.59996,2470.217,2021-8-28T05:07:15Z
2021-08-28T03:08:58Z,42.805,6.029,13.2984,4.59999,2470.25,2021-8-28T05:10:18Z
2021-08-28T03:12:02Z,42.805,6.029,13.2986,4.59996,2470.264,2021-8-28T05:13:21Z
2021-08-28T03:15:05Z,42.805,6.029,13.2984,4.59996,2470.24,2021-8-28T05:16:24Z
2021-08-28T03:18:08Z,42.805,6.029,13.2983,4.59996,2470.24,2021-8-28T05:19:27Z
2021-08-28T03:21:11Z,42.805,6.029,13.2988,4.59997,2470.227,2021-8-28T05:22:30Z
2021-08-28T03:24:14Z,42.805,6.029,13.2985,4.59997,2470.227,2021-8-28T05:25:34Z
2021-08-28T03:27:17Z,42.805,6.029,13.2986,4.59996,2470.217,2021-8-28T05:28:37Z
2021-08-28T03:30:20Z,42.805,6.029,13.2984,4.59997,2470.25,2021-8-28T05:31:40Z
2021-08-28T03:33:23Z,42.805,6.029,13.2981,4.59996,2470.217,2021-8-28T05:34:43Z
2021-08-28T03:36:26Z,42.805,6.029,13.2983,4.59998,2470.24,2021-8-28T05:37:46Z
2021-08-28T03:39:30Z,42.805,6.029,13.2983,4.59996,2470.203,2021-8-28T05:40:49Z
2021-08-28T03:42:33Z,42.805,6.029,13.2986,4.59996,2470.227,2021-8-28T05:43:52Z
2021-08-28T03:45:36Z,42.805,6.029,13.2984,4.59996,2470.25,2021-8-28T05:46:55Z
2021-08-28T03:48:39Z,42.805,6.029,13.2984,4.59996,2470.227,2021-8-28T05:49:59Z
2021-08-28T03:51:42Z,42.805,6.029,13.2982,4.59996,2470.203,2021-8-28T05:53:02Z
2021-08-28T03:54:45Z,42.805,6.029,13.2982,4.59996,2470.203,2021-8-28T05:56:05Z
2021-08-28T03:57:48Z,42.805,6.029,13.2986,4.59996,2470.227,2021-8-28T05:59:08Z
2021-08-28T04:00:51Z,42.805,6.029,13.2983,4.59996,2470.24,2021-8-28T06:02:11Z
2021-08-28T04:03:55Z,42.805,6.029,13.2985,4.59998,2470.217,2021-8-28T06:05:14Z
2021-08-28T04:06:58Z,42.805,6.029,13.2984,4.59996,2470.203,2021-8-28T06:08:17Z
2021-08-28T04:10:01Z,42.805,6.029,13.2984,4.59996,2470.25,2021-8-28T06:11:20Z
2021-08-28T04:13:04Z,42.805,6.029,13.2986,4.59997,2470.203,2021-8-28T06:14:23Z
2021-08-28T04:16:07Z,42.805,6.029,13.2984,4.59995,2470.203,2021-8-28T06:17:27Z
2021-08-28T04:19:10Z,42.805,6.029,13.2985,4.59995,2470.24,2021-8-28T06:20:30Z
2021-08-28T04:22:13Z,42.805,6.029,13.2983,4.59996,2470.203,2021-8-28T06:23:33Z
2021-08-28T04:25:16Z,42.805,6.029,13.2984,4.59997,2470.203,2021-8-28T06:26:36Z
2021-08-28T04:28:20Z,42.805,6.029,13.2983,4.59997,2470.194,2021-8-28T06:29:39Z
2021-08-28T04:31:23Z,42.805,6.029,13.2985,4.59996,2470.217,2021-8-28T06:32:42Z
2021-08-28T04:34:26Z,42.805,6.029,13.2984,4.59996,2470.217,2021-8-28T06:35:45Z
2021-08-28T04:37:29Z,42.805,6.029,13.2985,4.59997,2470.194,2021-8-28T06:38:48Z
2021-08-28T04:40:32Z,42.805,6.029,13.2980,4.59998,2470.18,2021-8-28T06:41:52Z
2021-08-28T04:43:35Z,42.805,6.029,13.2983,4.59996,2470.203,2021-8-28T06:44:55Z
2021-08-28T04:46:38Z,42.805,6.029,13.2985,4.59996,2470.203,2021-8-28T06:47:58Z
2021-08-28T04:49:41Z,42.805,6.029,13.2988,4.59997,2470.203,2021-8-28T06:51:01Z
2021-08-28T04:52:45Z,42.805,6.029,13.2986,4.59996,2470.18,2021-8-28T06:54:04Z
2021-08-28T04:55:48Z,42.805,6.029,13.2985,4.59996,2470.203,2021-8-28T06:57:07Z
2021-08-28T04:58:51Z,42.805,6.029,13.2981,4.59998,2470.18,2021-8-28T07:00:10Z
2021-08-28T05:01:54Z,42.805,6.029,13.2986,4.59996,2470.217,2021-8-28T07:03:13Z
2021-08-28T05:04:57Z,42.805,6.029,13.2986,4.59996,2470.18,2021-8-28T07:06:17Z
2021-08-28T05:08:00Z,42.805,6.029,13.2984,4.59996,2470.203,2021-8-28T07:09:20Z
2021-08-28T05:11:03Z,42.805,6.029,13.2986,4.59996,2470.18,2021-8-28T07:12:23Z
2021-08-28T05:14:06Z,42.805,6.029,13.2982,4.59996,2470.217,2021-8-28T07:15:26Z
2021-08-28T05:17:10Z,42.805,6.029,13.2981,4.59996,2470.203,2021-8-28T07:18:29Z
2021-08-28T05:20:13Z,42.805,6.029,13.2983,4.59996,2470.203,2021-8-28T07:21:32Z
2021-08-28T05:23:16Z,42.805,6.029,13.2986,4.59996,2470.227,2021-8-28T07:24:35Z
2021-08-28T05:26:19Z,42.805,6.029,13.2985,4.59996,2470.203,2021-8-28T07:27:38Z
2021-08-28T05:29:22Z,42.805,6.029,13.2986,4.59996,2470.194,2021-8-28T07:30:42Z
2021-08-28T05:32:25Z,42.805,6.029,13.2984,4.59996,2470.171,2021-8-28T07:33:45Z
2021-08-28T05:35:28Z,42.805,6.029,13.2986,4.59998,2470.217,2021-8-28T07:36:48Z
2021-08-28T05:38:31Z,42.805,6.029,13.2983,4.59999,2470.189,2021-8-28T07:39:51Z
2021-08-28T05:41:35Z,42.805,6.029,13.2982,4.59996,2470.227,2021-8-28T07:42:54Z
2021-08-28T05:44:38Z,42.805,6.029,13.2989,4.59996,2470.217,2021-8-28T07:45:57Z
2021-08-28T05:47:41Z,42.805,6.029,13.2986,4.59996,2470.18,2021-8-28T07:49:00Z
2021-08-28T05:50:44Z,42.805,6.029,13.2980,4.59996,2470.217,2021-8-28T07:52:03Z
2021-08-28T05:53:47Z,42.805,6.029,13.2983,4.59996,2470.203,2021-8-28T07:55:07Z
2021-08-28T05:56:50Z,42.805,6.029,13.2985,4.59997,2470.203,2021-8-28T07:58:10Z
2021-08-28T05:59:53Z,42.805,6.029,13.2986,4.59996,2470.194,2021-8-28T08:01:13Z
2021-08-28T06:02:56Z,42.805,6.029,13.2983,4.59997,2470.18,2021-8-28T08:04:16Z
2021-08-28T06:06:00Z,42.805,6.029,13.2986,4.59997,2470.217,2021-8-28T08:07:19Z
2021-08-28T06:09:03Z,42.805,6.029,13.2983,4.59996,2470.227,2021-8-28T08:10:22Z
2021-08-28T06:12:06Z,42.805,6.029,13.2983,4.59997,2470.194,2021-8-28T08:13:25Z
2021-08-28T06:15:09Z,42.805,6.029,13.2983,4.59997,2470.227,2021-8-28T08:16:28Z
2021-08-28T06:18:12Z,42.805,6.029,13.2989,4.59996,2470.18,2021-8-28T08:19:32Z
2021-08-28T06:21:15Z,42.805,6.029,13.2987,4.59997,2470.203,2021-8-28T08:22:35Z
2021-08-28T06:24:18Z,42.805,6.029,13.2986,4.59998,2470.217,2021-8-28T08:25:38Z
2021-08-28T06:27:21Z,42.805,6.029,13.2984,4.59997,2470.217,2021-8-28T08:28:41Z
2021-08-28T06:30:24Z,42.805,6.029,13.2982,4.59996,2470.203,2021-8-28T08:31:44Z
2021-08-28T06:33:28Z,42.805,6.029,13.2984,4.59997,2470.18,2021-8-28T08:34:47Z
2021-08-28T06:36:31Z,42.805,6.029,13.2984,4.59996,2470.227,2021-8-28T08:37:50Z
2021-08-28T06:39:34Z,42.805,6.029,13.2985,4.59997,2470.227,2021-8-28T08:40:53Z
2021-08-28T06:42:37Z,42.805,6.029,13.2984,4.59997,2470.264,2021-8-28T08:43:57Z
2021-08-28T06:45:40Z,42.805,6.029,13.2984,4.59997,2470.227,2021-8-28T08:47:00Z
2021-08-28T06:48:43Z,42.805,6.029,13.2983,4.59997,2470.227,2021-8-28T08:50:03Z
2021-08-28T06:51:46Z,42.805,6.029,13.2985,4.59997,2470.273,2021-8-28T08:53:06Z
2021-08-28T06:54:49Z,42.805,6.029,13.2987,4.59998,2470.227,2021-8-28T08:56:09Z
2021-08-28T06:57:53Z,42.805,6.029,13.2988,4.59997,2470.264,2021-8-28T08:59:12Z
2021-08-28T07:00:56Z,42.805,6.029,13.2987,4.59997,2470.24,2021-8-28T09:02:15Z
2021-08-28T07:03:59Z,42.805,6.029,13.2982,4.59997,2470.203,2021-8-28T09:05:18Z
2021-08-28T07:07:02Z,42.805,6.029,13.2984,4.59997,2470.264,2021-8-28T09:08:22Z
2021-08-28T07:10:05Z,42.805,6.029,13.2985,4.59998,2470.264,2021-8-28T09:11:25Z
2021-08-28T07:13:08Z,42.805,6.029,13.2986,4.59996,2470.227,2021-8-28T09:14:28Z
2021-08-28T07:16:11Z,42.805,6.029,13.2985,4.59996,2470.25,2021-8-28T09:17:31Z
2021-08-28T07:19:14Z,42.805,6.029,13.2985,4.59997,2470.264,2021-8-28T09:20:34Z
2021-08-28T07:22:18Z,42.805,6.029,13.2983,4.59996,2470.25,2021-8-28T09:23:37Z
2021-08-28T07:25:21Z,42.805,6.029,13.2987,4.59997,2470.25,2021-8-28T09:26:40Z
2021-08-28T07:28:24Z,42.805,6.029,13.2986,4.59998,2470.25,2021-8-28T09:29:43Z
2021-08-28T07:31:27Z,42.805,6.029,13.2984,4.59997,2470.264,2021-8-28T09:32:47Z
2021-08-28T07:34:30Z,42.805,6.029,13.2981,4.59997,2470.264,2021-8-28T09:35:50Z
2021-08-28T07:37:33Z,42.805,6.029,13.2986,4.59997,2470.227,2021-8-28T09:38:53Z
2021-08-28T07:40:36Z,42.805,6.029,13.2986,4.59996,2470.273,2021-8-28T09:41:56Z
2021-08-28T07:43:39Z,42.805,6.029,13.2986,4.59996,2470.264,2021-8-28T09:44:59Z
2021-08-28T07:46:43Z,42.805,6.029,13.2985,4.59996,2470.25,2021-8-28T09:48:02Z
2021-08-28T07:49:46Z,42.805,6.029,13.2986,4.59997,2470.264,2021-8-28T09:51:05Z
2021-08-28T07:52:49Z,42.805,6.029,13.2982,4.59997,2470.297,2021-8-28T09:54:08Z
2021-08-28T07:55:52Z,42.805,6.029,13.2985,4.59997,2470.31,2021-8-28T09:57:12Z
2021-08-28T07:58:55Z,42.805,6.029,13.2982,4.59997,2470.24,2021-8-28T10:00:15Z
2021-08-28T08:01:58Z,42.805,6.029,13.2982,4.59996,2470.287,2021-8-28T10:03:18Z
2021-08-28T08:05:01Z,42.805,6.029,13.2984,4.59996,2470.287,2021-8-28T10:06:21Z
2021-08-28T08:08:04Z,42.805,6.029,13.2985,4.59996,2470.31,2021-8-28T10:09:24Z
2021-08-28T08:11:08Z,42.805,6.029,13.2986,4.59997,2470.297,2021-8-28T10:12:27Z
2021-08-28T08:14:11Z,42.805,6.029,13.2986,4.59996,2470.297,2021-8-28T10:15:30Z
2021-08-28T08:17:14Z,42.805,6.029,13.2989,4.59996,2470.297,2021-8-28T10:18:33Z
2021-08-28T08:20:17Z,42.805,6.029,13.2984,4.59998,2470.287,2021-8-28T10:21:37Z
2021-08-28T08:23:20Z,42.805,6.029,13.2983,4.59998,2470.297,2021-8-28T10:24:40Z
2021-08-28T08:26:23Z,42.805,6.029,13.2984,4.59997,2470.287,2021-8-28T10:27:43Z
2021-08-28T08:29:26Z,42.805,6.029,13.2983,4.59997,2470.297,2021-8-28T10:30:46Z
2021-08-28T08:32:29Z,42.805,6.029,13.2985,4.59997,2470.297,2021-8-28T10:33:49Z
2021-08-28T08:35:33Z,42.805,6.029,13.2985,4.59996,2470.297,2021-8-28T10:36:52Z
2021-08-28T08:38:36Z,42.805,6.029,13.2982,4.59997,2470.25,2021-8-28T10:39:55Z
2021-08-28T08:41:39Z,42.805,6.029,13.2985,4.59996,2470.31,2021-8-28T10:42:58Z
2021-08-28T08:44:42Z,42.805,6.029,13.2980,4.59996,2470.32,2021-8-28T10:46:02Z
2021-08-28T08:47:45Z,42.805,6.029,13.2984,4.59996,2470.32,2021-8-28T10:49:05Z
2021-08-28T08:50:48Z,42.805,6.029,13.2983,4.59996,2470.297,2021-8-28T10:52:08Z
2021-08-28T08:53:51Z,42.805,6.029,13.2982,4.59997,2470.334,2021-8-28T10:55:11Z
2021-08-28T08:56:54Z,42.805,6.029,13.2986,4.59996,2470.343,2021-8-28T10:58:14Z
2021-08-28T08:59:58Z,42.805,6.029,13.2990,4.59996,2470.32,2021-8-28T11:01:17Z
2021-08-28T09:03:01Z,42.805,6.029,13.2986,4.59996,2470.31,2021-8-28T11:04:20Z
2021-08-28T09:06:04Z,42.805,6.029,13.2987,4.59997,2470.32,2021-8-28T11:07:23Z
2021-08-28T09:09:07Z,42.805,6.029,13.2986,4.59996,2470.334,2021-8-28T11:10:27Z
2021-08-28T09:12:10Z,42.805,6.029,13.2986,4.59997,2470.334,2021-8-28T11:13:30Z
2021-08-28T09:15:13Z,42.805,6.029,13.2986,4.59998,2470.357,2021-8-28T11:16:33Z
2021-08-28T09:18:16Z,42.805,6.029,13.2988,4.59997,2470.32,2021-8-28T11:19:36Z
2021-08-28T09:21:20Z,42.805,6.029,13.2985,4.59997,2470.357,2021-8-28T11:22:39Z
2021-08-28T09:24:23Z,42.805,6.029,13.2984,4.59997,2470.357,2021-8-28T11:25:42Z
2021-08-28T09:27:26Z,42.805,6.029,13.2982,4.59996,2470.357,2021-8-28T11:28:45Z
2021-08-28T09:30:29Z,42.805,6.029,13.2983,4.59997,2470.357,2021-8-28T11:31:48Z
2021-08-28T09:33:32Z,42.805,6.029,13.2986,4.59997,2470.32,2021-8-28T11:34:52Z
2021-08-28T09:36:35Z,42.805,6.029,13.2984,4.59996,2470.366,2021-8-28T11:37:55Z
2021-08-28T09:39:38Z,42.805,6.029,13.2985,4.59999,2470.334,2021-8-28T11:40:58Z
2021-08-28T09:42:41Z,42.805,6.029,13.2986,4.59997,2470.38,2021-8-28T11:44:01Z
2021-08-28T09:45:45Z,42.805,6.029,13.2984,4.59997,2470.297,2021-8-28T11:47:04Z
2021-08-28T09:48:48Z,42.805,6.029,13.2989,4.59998,2470.343,2021-8-28T11:50:07Z
2021-08-28T09:51:51Z,42.805,6.029,13.2983,4.59998,2470.39,2021-8-28T11:53:10Z
2021-08-28T09:54:54Z,42.805,6.029,13.2981,4.59998,2470.366,2021-8-28T11:56:13Z
2021-08-28T09:57:57Z,42.805,6.029,13.2984,4.59997,2470.343,2021-8-28T11:59:17Z
2021-08-28T10:01:00Z,42.805,6.029,13.2982,4.59997,2470.343,2021-8-28T12:02:20Z
2021-08-28T10:04:03Z,42.805,6.029,13.2989,4.59997,2470.357,2021-8-28T12:05:23Z
2021-08-28T10:07:06Z,42.805,6.029,13.2987,4.59996,2470.334,2021-8-28T12:08:26Z
2021-08-28T10:10:10Z,42.805,6.029,13.2986,4.59999,2470.334,2021-8-28T12:11:29Z
2021-08-28T10:13:13Z,42.805,6.029,13.2987,4.59998,2470.357,2021-8-28T12:14:32Z
2021-08-28T10:16:16Z,42.805,6.029,13.2985,4.59997,2470.38,2021-8-28T12:17:35Z
2021-08-28T10:19:19Z,42.805,6.029,13.2984,4.59996,2470.357,2021-8-28T12:20:39Z
2021-08-28T10:22:22Z,42.805,6.029,13.2982,4.59998,2470.32,2021-8-28T12:23:42Z
2021-08-28T10:25:25Z,42.805,6.029,13.2983,4.59996,2470.343,2021-8-28T12:26:45Z
2021-08-28T10:28:28Z,42.805,6.029,13.2987,4.59996,2470.366,2021-8-28T12:29:48Z
2021-08-28T10:31:31Z,42.805,6.029,13.2986,4.59998,2470.366,2021-8-28T12:32:51Z
2021-08-28T10:34:35Z,42.805,6.029,13.2985,4.59997,2470.334,2021-8-28T12:35:54Z
2021-08-28T10:37:38Z,42.805,6.029,13.2983,4.59999,2470.357,2021-8-28T12:38:57Z
2021-08-28T10:40:41Z,42.805,6.029,13.2988,4.59996,2470.33,2021-8-28T12:42:00Z
2021-08-28T10:43:44Z,42.805,6.029,13.2988,4.59996,2470.32,2021-8-28T12:45:04Z
2021-08-28T10:46:47Z,42.805,6.029,13.2979,4.59997,2470.343,2021-8-28T12:48:07Z
2021-08-28T10:49:50Z,42.805,6.029,13.2983,4.59996,2470.357,2021-8-28T12:51:10Z
2021-08-28T10:52:53Z,42.805,6.029,13.2982,4.59996,2470.366,2021-8-28T12:54:13Z
2021-08-28T10:55:56Z,42.805,6.029,13.2983,4.59996,2470.32,2021-8-28T12:57:16Z
2021-08-28T10:59:00Z,42.805,6.029,13.2983,4.59996,2470.357,2021-8-28T13:00:19Z
2021-08-28T11:02:03Z,42.805,6.029,13.2986,4.59996,2470.366,2021-8-28T13:03:22Z
2021-08-28T11:05:06Z,42.805,6.029,13.2985,4.59997,2470.32,2021-8-28T13:06:25Z
2021-08-28T11:08:09Z,42.805,6.029,13.2984,4.59997,2470.366,2021-8-28T13:09:29Z
2021-08-28T11:11:12Z,42.805,6.029,13.2986,4.59996,2470.31,2021-8-28T13:12:32Z
2021-08-28T11:14:15Z,42.805,6.029,13.2988,4.59996,2470.366,2021-8-28T13:15:35Z
2021-08-28T11:17:18Z,42.805,6.029,13.2982,4.59997,2470.366,2021-8-28T13:18:38Z
2021-08-28T11:20:21Z,42.805,6.029,13.2986,4.59996,2470.38,2021-8-28T13:21:41Z
2021-08-28T11:23:25Z,42.805,6.029,13.2983,4.59997,2470.38,2021-8-28T13:24:44Z
2021-08-28T11:26:28Z,42.805,6.029,13.2984,4.59998,2470.366,2021-8-28T13:27:47Z
2021-08-28T11:29:31Z,42.805,6.029,13.2982,4.59996,2470.357,2021-8-28T13:30:50Z
2021-08-28T11:32:34Z,42.805,6.029,13.2981,4.59996,2470.334,2021-8-28T13:33:54Z
2021-08-28T11:35:37Z,42.805,6.029,13.2986,4.59996,2470.366,2021-8-28T13:36:57Z
2021-08-28T11:38:40Z,42.805,6.029,13.2984,4.59998,2470.32,2021-8-28T13:40:00Z
2021-08-28T11:41:43Z,42.805,6.029,13.2985,4.59997,2470.32,2021-8-28T13:43:03Z
2021-08-28T11:44:46Z,42.805,6.029,13.2981,4.59998,2470.297,2021-8-28T13:46:06Z
2021-08-28T11:47:50Z,42.805,6.029,13.2982,4.59997,2470.343,2021-8-28T13:49:09Z
2021-08-28T11:50:53Z,42.805,6.029,13.2990,4.59997,2470.343,2021-8-28T13:52:12Z
2021-08-28T11:53:56Z,42.805,6.029,13.2985,4.59996,2470.343,2021-8-28T13:55:15Z
2021-08-28T11:56:59Z,42.805,6.029,13.2983,4.59996,2470.297,2021-8-28T13:58:19Z
2021-08-28T12:00:02Z,42.805,6.029,13.2985,4.59997,2470.343,2021-8-28T14:01:22Z
2021-08-28T12:03:05Z,42.805,6.029,13.2986,4.59998,2470.357,2021-8-28T14:04:25Z
2021-08-28T12:06:08Z,42.805,6.029,13.2985,4.59997,2470.357,2021-8-28T14:07:28Z
2021-08-28T12:09:11Z,42.805,6.029,13.2984,4.59997,2470.343,2021-8-28T14:10:31Z
2021-08-28T12:12:15Z,42.805,6.029,13.2983,4.59997,2470.357,2021-8-28T14:13:34Z
2021-08-28T12:15:18Z,42.805,6.029,13.2984,4.59996,2470.297,2021-8-28T14:16:37Z
2021-08-28T12:18:21Z,42.805,6.029,13.2983,4.59996,2470.32,2021-8-28T14:19:40Z
2021-08-28T12:21:24Z,42.805,6.029,13.2984,4.59998,2470.32,2021-8-28T14:22:44Z
2021-08-28T12:24:27Z,42.805,6.029,13.2986,4.59996,2470.32,2021-8-28T14:25:47Z
2021-08-28T12:27:30Z,42.805,6.029,13.2986,4.59997,2470.32,2021-8-28T14:28:50Z
2021-08-28T12:30:33Z,42.805,6.029,13.2981,4.59996,2470.343,2021-8-28T14:31:53Z
2021-08-28T12:33:37Z,42.805,6.029,13.2985,4.59996,2470.357,2021-8-28T14:34:56Z
2021-08-28T12:36:40Z,42.805,6.029,13.2983,4.59996,2470.343,2021-8-28T14:37:59Z
2021-08-28T12:39:43Z,42.805,6.029,13.2986,4.59998,2470.334,2021-8-28T14:41:02Z
2021-08-28T12:42:46Z,42.805,6.029,13.2985,4.59997,2470.32,2021-8-28T14:44:05Z
2021-08-28T12:45:49Z,42.805,6.029,13.2984,4.59996,2470.334,2021-8-28T14:47:09Z
2021-08-28T12:48:52Z,42.805,6.029,13.2985,4.59996,2470.32,2021-8-28T14:50:12Z
2021-08-28T12:51:55Z,42.805,6.029,13.2983,4.59997,2470.32,2021-8-28T14:53:15Z
2021-08-28T12:54:58Z,42.805,6.029,13.2987,4.59998,2470.31,2021-8-28T14:56:18Z
2021-08-28T12:58:02Z,42.805,6.029,13.2983,4.59999,2470.273,2021-8-28T14:59:21Z
2021-08-28T13:01:05Z,42.805,6.029,13.2986,4.59996,2470.273,2021-8-28T15:02:24Z
2021-08-28T13:04:08Z,42.805,6.029,13.2984,4.59997,2470.343,2021-8-28T15:05:27Z
2021-08-28T13:07:11Z,42.805,6.029,13.2988,4.59996,2470.343,2021-8-28T15:08:30Z
2021-08-28T13:10:14Z,42.805,6.029,13.2983,4.59998,2470.32,2021-8-28T15:11:34Z
2021-08-28T13:13:17Z,42.805,6.029,13.2984,4.59997,2470.334,2021-8-28T15:14:37Z
2021-08-28T13:16:20Z,42.805,6.029,13.2981,4.59996,2470.343,2021-8-28T15:17:40Z
2021-08-28T13:19:23Z,42.805,6.029,13.2989,4.59997,2470.31,2021-8-28T15:20:43Z
2021-08-28T13:22:27Z,42.805,6.029,13.2983,4.59996,2470.334,2021-8-28T15:23:46Z
2021-08-28T13:25:30Z,42.805,6.029,13.2987,4.59997,2470.297,2021-8-28T15:26:49Z
2021-08-28T13:28:33Z,42.805,6.029,13.2988,4.59997,2470.297,2021-8-28T15:29:52Z
2021-08-28T13:31:36Z,42.805,6.029,13.2983,4.59996,2470.357,2021-8-28T15:32:55Z
2021-08-28T13:34:39Z,42.805,6.029,13.2983,4.59997,2470.297,2021-8-28T15:35:59Z
2021-08-28T13:37:42Z,42.805,6.029,13.2987,4.59998,2470.366,2021-8-28T15:39:02Z
2021-08-28T13:40:45Z,42.805,6.029,13.2985,4.59996,2470.32,2021-8-28T15:42:05Z
2021-08-28T13:43:48Z,42.805,6.029,13.2983,4.59997,2470.32,2021-8-28T15:45:08Z
2021-08-28T13:46:52Z,42.805,6.029,13.2985,4.59997,2470.32,2021-8-28T15:48:11Z
2021-08-28T13:49:55Z,42.805,6.029,13.2985,4.59998,2470.32,2021-8-28T15:51:14Z
2021-08-28T13:52:58Z,42.805,6.029,13.2988,4.59996,2470.32,2021-8-28T15:54:17Z
2021-08-28T13:56:01Z,42.805,6.029,13.2985,4.59996,2470.287,2021-8-28T15:57:21Z
2021-08-28T13:59:04Z,42.805,6.029,13.2983,4.59998,2470.334,2021-8-28T16:00:24Z
2021-08-28T14:02:07Z,42.805,6.029,13.2984,4.59997,2470.334,2021-8-28T16:03:27Z
2021-08-28T14:05:10Z,42.805,6.029,13.2986,4.59996,2470.297,2021-8-28T16:06:30Z
2021-08-28T14:08:13Z,42.805,6.029,13.2984,4.59998,2470.297,2021-8-28T16:09:33Z
2021-08-28T14:11:17Z,42.805,6.029,13.2986,4.59996,2470.32,2021-8-28T16:12:36Z
2021-08-28T14:14:20Z,42.805,6.029,13.2984,4.59996,2470.273,2021-8-28T16:15:39Z
2021-08-28T14:17:23Z,42.805,6.029,13.2982,4.59996,2470.32,2021-8-28T16:18:42Z
2021-08-28T14:20:26Z,42.805,6.029,13.2987,4.59998,2470.31,2021-8-28T16:21:46Z
2021-08-28T14:23:29Z,42.805,6.029,13.2985,4.59996,2470.273,2021-8-28T16:24:49Z
2021-08-28T14:26:32Z,42.805,6.029,13.2983,4.59997,2470.297,2021-8-28T16:27:52Z
2021-08-28T14:29:35Z,42.805,6.029,13.2983,4.59996,2470.32,2021-8-28T16:30:55Z
2021-08-28T14:32:38Z,42.805,6.029,13.2983,4.59996,2470.287,2021-8-28T16:33:58Z
2021-08-28T14:35:42Z,42.805,6.029,13.2984,4.59996,2470.273,2021-8-28T16:37:01Z
2021-08-28T14:38:45Z,42.805,6.029,13.2983,4.59996,2470.32,2021-8-28T16:40:04Z
2021-08-28T14:41:48Z,42.805,6.029,13.2986,4.59996,2470.32,2021-8-28T16:43:07Z
2021-08-28T14:44:51Z,42.805,6.029,13.2986,4.59997,2470.343,2021-8-28T16:46:11Z
2021-08-28T14:47:54Z,42.805,6.029,13.2983,4.59996,2470.32,2021-8-28T16:49:14Z
2021-08-28T14:50:57Z,42.805,6.029,13.2985,4.59997,2470.297,2021-8-28T16:52:17Z
2021-08-28T14:54:00Z,42.805,6.029,13.2988,4.59997,2470.334,2021-8-28T16:55:20Z
2021-08-28T14:57:03Z,42.805,6.029,13.2986,4.59996,2470.273,2021-8-28T16:58:23Z
2021-08-28T15:00:07Z,42.805,6.029,13.2982,4.59997,2470.273,2021-8-28T17:01:26Z
2021-08-28T15:03:10Z,42.805,6.029,13.2984,4.59998,2470.31,2021-8-28T17:04:29Z
2021-08-28T15:06:13Z,42.805,6.029,13.2982,4.59999,2470.297,2021-8-28T17:07:32Z
2021-08-28T15:09:16Z,42.805,6.029,13.2985,4.59998,2470.287,2021-8-28T17:10:36Z
2021-08-28T15:12:19Z,42.805,6.029,13.2988,4.59996,2470.343,2021-8-28T17:13:39Z
2021-08-28T15:15:22Z,42.805,6.029,13.2983,4.59998,2470.297,2021-8-28T17:16:42Z